{"data":{"norad_id":60347,"epoch":"2026-05-25T03:36:05.781024Z","epoch_age_seconds":52184,"freshness":"FRESH","line1":"1 60347U 24136U   26145.15006691  .00002573  00000+0  98994-4 0  9991","line2":"2 60347  53.1613  80.3203 0001347  96.7877 263.3277 15.30194388101370","mean_motion":15.30194388,"eccentricity":0.0001347,"inclination_deg":53.1613,"raan_deg":80.3203,"arg_perigee_deg":96.7877,"mean_anomaly_deg":263.3277,"bstar":9.8994e-5,"rev_number":10137,"period_min":94.105690838542,"perigee_km":474.30867711012,"apogee_km":476.15497467181,"semimajor_km":6853.368825891,"source":"CELESTRAK","updated_at":"2026-05-25T13:38:19.236453Z"}}